1517029200.26,19813,8.63,74028.5,-5.05,-31.57,-31.73,0,*54
1517029201.52,19814,8.63,74030.5,-5.05,-31.91,-31.91,0,*55
1517029202.76,19815,8.56,74024.0,-5.05,-31.61,-31.79,0,*5D
1517029204.04,19816,8.63,74028.8,-5.03,-31.39,-31.39,0,*51
1517029205.29,19817,8.56,74024.0,-5.03,-31.57,-31.67,0,*53
1517029206.58,19818,8.63,74028.8,-5.03,-31.85,-31.91,0,*5A
1517029207.8,19819,8.63,74030.0,-5.03,-31.67,-31.67,0,*5E
1517029209.08,19820,8.63,74030.3,-5.03,-31.57,-31.73,0,*52
1517029210.36,19821,8.56,74026.3,-5.03,-31.73,-31.73,0,*55
1517029211.59,19822,8.56,74028.8,-5.03,-32.01,-32.01,0,*56
1517029212.84,19823,8.63,74030.0,-5.03,-31.67,-31.73,0,*52
1517029214.12,19824,8.56,74026.5,-5.03,-31.73,-31.85,0,*59
1517029215.4,19825,8.63,74030.8,-5.03,-31.73,-31.85,0,*58
1517029216.68,19826,8.56,74030.0,-5.03,-31.85,-31.85,0,*52
1517029217.96,19827,8.63,74028.8,-5.03,-31.73,-31.73,0,*53
1517029219.24,19828,8.63,74030.0,-5.03,-31.73,-31.85,0,*55
1517029220.52,19829,8.56,74026.3,-5.03,-31.57,-31.57,0,*5D
1517029221.77,19830,8.63,74032.5,-5.03,-31.57,-31.67,0,*56
1517029223.05,19831,8.56,74030.0,-5.03,-31.57,-31.73,0,*52
1517029224.31,19832,8.63,74030.5,-5.03,-31.57,-31.67,0,*54
1517029225.59,19833,8.56,74028.5,-5.03,-31.85,-31.91,0,*53
1517029226.87,19834,8.63,74030.8,-5.03,-31.85,-31.85,0,*51
1517029228.16,19835,8.56,74028.3,-5.03,-31.73,-31.91,0,*5C
1517029229.41,19836,8.56,74028.5,-5.03,-31.85,-32.01,0,*5C
1517029230.67,19837,8.63,74032.5,-5.01,-31.73,-31.85,0,*59
1517029231.95,19838,8.56,74024.5,-5.03,-31.85,-31.85,0,*5D
1517029233.2,19839,8.56,74024.5,-5.03,-31.67,-31.73,0,*59
1517029234.39,19840,8.56,74028.5,-5.01,-31.67,-31.67,0,*50
1517029235.68,19841,8.63,74028.5,-5.03,-31.73,-31.85,0,*5A
1517029236.93,19842,8.56,74026.5,-5.01,-31.85,-31.73,0,*5B
1517029238.21,19843,8.63,74030.3,-5.03,-31.73,-31.85,0,*58
1517029239.47,19844,8.63,74030.3,-5.01,-31.85,-31.85,0,*54
1517029240.72,19845,8.56,74028.8,-5.01,-31.73,-31.73,0,*55
1517029242.0,19846,8.56,74030.5,-5.03,-31.73,-31.73,0,*54
1517029243.23,19847,8.56,74026.3,-5.01,-31.57,-31.67,0,*54
1517029244.51,19848,8.56,74026.0,-5.03,-31.85,-31.91,0,*5F
1517029245.79,19849,8.56,74028.0,-5.03,-31.73,-31.73,0,*5B
1517029247.04,19850,8.63,74030.5,-5.03,-31.91,-32.01,0,*59
1517029248.32,19851,8.63,74030.3,-5.03,-31.73,-31.85,0,*5B
1517029249.53,19852,8.63,74028.8,-5.01,-32.01,-32.01,0,*53
1517029250.76,19853,8.63,74028.5,-5.01,-31.57,-31.67,0,*51
1517029252.04,19854,8.56,74026.8,-5.03,-31.57,-31.73,0,*51
1517029253.26,19855,8.63,74028.5,-5.01,-31.67,-31.85,0,*58
1517029254.54,19856,8.56,74026.8,-5.03,-31.73,-31.73,0,*55
1517029255.82,19857,8.63,74028.5,-5.03,-31.73,-31.85,0,*5D
1517029257.08,19858,8.63,74028.0,-5.01,-31.91,-31.85,0,*5C
1517029258.36,19859,8.56,74024.8,-5.03,-31.91,-31.91,0,*5A
1517029259.64,19860,8.56,74024.0,-5.03,-31.51,-31.51,0,*50
1517029260.88,19861,8.56,74026.3,-5.03,-31.67,-31.73,0,*54
1517029262.14,19862,8.63,74030.5,-5.01,-31.91,-31.91,0,*50
1517029263.39,19863,8.56,74026.8,-5.01,-31.73,-31.85,0,*58
1517029264.62,19864,8.56,74028.0,-5.01,-31.67,-31.85,0,*5A
1517029265.87,19865,8.63,74030.5,-5.01,-31.85,-31.85,0,*57
1517029267.15,19866,8.56,74026.3,-5.03,-31.73,-31.73,0,*56
1517029268.41,19867,8.63,74030.5,-5.01,-31.85,-31.85,0,*55
1517029269.69,19868,8.63,74028.5,-5.03,-31.73,-31.85,0,*51
1517029270.95,19869,8.56,74026.3,-5.01,-31.57,-31.85,0,*54
1517029272.17,19870,8.63,74030.8,-5.01,-31.57,-31.67,0,*50
1517029273.46,19871,8.63,74030.3,-4.97,-31.61,-31.61,0,*5C
1517029274.72,19872,8.56,74030.0,-5.03,-31.85,-32.01,0,*5C
1517029275.93,19873,8.56,74030.0,-5.01,-32.01,-32.01,0,*50
1517029277.18,19874,8.63,74028.5,-5.03,-31.91,-32.01,0,*5F
1517029278.44,19875,8.63,74030.3,-4.97,-31.85,-31.79,0,*5B
1517029279.72,19876,8.63,74028.5,-5.03,-31.91,-32.07,0,*5B
1517029281.01,19877,8.63,74028.5,-5.03,-31.85,-31.91,0,*53
1517029282.26,19878,8.63,74026.8,-5.01,-31.85,-31.85,0,*5B
1517029283.54,19879,8.63,74030.5,-5.03,-31.39,-31.39,0,*58
1517029284.83,19880,8.63,74030.8,-4.97,-31.61,-31.61,0,*52
1517029286.11,19881,8.56,74026.8,-5.03,-31.91,-31.85,0,*5A
1517029287.34,19882,8.56,74026.3,-5.01,-31.85,-32.01,0,*51
1517029288.6,19883,8.63,74030.5,-5.01,-31.85,-31.85,0,*5F
1517029289.85,19884,8.56,74028.5,-5.03,-31.91,-32.01,0,*50
1517029291.1,19885,8.56,74028.0,-5.03,-31.91,-32.01,0,*51
1517029292.34,19886,8.56,74030.5,-5.01,-32.01,-32.07,0,*5C
1517029293.59,19887,8.63,74030.3,-5.03,-31.91,-32.01,0,*53
1517029294.88,19888,8.56,74020.8,-5.03,-31.85,-31.85,0,*56
1517029296.16,19889,8.63,74028.3,-5.03,-31.91,-31.91,0,*57
1517029297.38,19890,8.56,74028.0,-5.01,-31.91,-32.01,0,*57
1517029298.64,19891,8.63,74028.5,-5.03,-31.73,-31.67,0,*5B
1517029299.92,19892,8.56,74026.5,-5.03,-31.85,-31.85,0,*5D
1517029301.12,19893,8.56,74026.3,-5.01,-31.67,-31.67,0,*5E
1517029302.37,19894,8.56,74026.8,-5.01,-31.85,-31.85,0,*59
1517029303.63,19895,8.63,74028.5,-5.01,-31.73,-31.73,0,*58
1517029304.91,19896,8.56,74028.8,-5.03,-31.85,-31.73,0,*50
1517029306.13,19897,8.56,74028.8,-5.01,-31.67,-31.73,0,*5F
1517029307.36,19898,8.63,74028.5,-5.01,-31.85,-32.01,0,*5A
1517029308.62,19899,8.56,74026.5,-5.03,-32.01,-32.07,0,*50
1517029309.85,19900,8.56,74026.8,-5.01,-31.85,-32.01,0,*5A
1517029311.13,19901,8.63,74028.0,-5.03,-31.57,-31.73,0,*50
1517029312.39,19902,8.63,74030.0,-5.01,-31.85,-31.91,0,*52
1517029313.61,19903,8.56,74026.3,-5.01,-31.91,-32.01,0,*5C
1517029314.89,19904,8.63,74028.0,-5.03,-31.91,-31.91,0,*53
1517029316.18,19905,8.56,74028.3,-5.03,-31.85,-31.91,0,*57
1517029317.43,19906,8.63,74028.8,-5.03,-31.85,-32.01,0,*5E
1517029318.67,19907,8.63,74030.5,-5.01,-32.01,-32.07,0,*54
1517029319.92,19908,8.63,74028.8,-5.03,-31.91,-32.01,0,*55
1517029321.18,19909,8.63,74028.5,-5.01,-31.73,-31.85,0,*55
1517029322.46,19910,8.63,74028.3,-5.03,-31.73,-31.85,0,*5F
1517029323.72,19911,8.56,74024.5,-5.01,-31.73,-31.85,0,*5C
1517029324.97,19912,8.56,74026.0,-5.03,-31.85,-32.01,0,*5B
1517029326.22,19913,8.63,74028.0,-5.01,-31.51,-31.73,0,*57
1517029327.49,19914,8.63,74030.5,-4.97,-31.45,-31.61,0,*58
1517029328.77,19915,8.63,74030.5,-4.97,-31.51,-31.61,0,*5C
1517029330.0,19916,8.63,74030.0,-4.97,-31.67,-31.67,0,*5C
1517029331.25,19917,8.56,74028.0,-5.03,-31.67,-31.73,0,*54
1517029332.54,19918,8.63,74028.3,-4.97,-31.61,-31.61,0,*52
1517029333.82,19919,8.63,74028.3,-4.97,-31.51,-31.61,0,*50
1517029335.08,19920,8.63,74028.8,-4.97,-31.61,-31.79,0,*50
1517029336.34,19921,8.63,74030.3,-5.01,-31.85,-31.91,0,*53
1517029337.59,19922,8.63,74028.5,-5.01,-31.73,-31.73,0,*55
1517029338.85,19923,8.63,74026.8,-5.01,-31.73,-31.85,0,*5D
1517029340.08,19924,8.63,74030.5,-4.97,-31.79,-31.79,0,*5D
1517029341.37,19925,8.56,74026.0,-4.97,-31.85,-31.85,0,*5C
1517029342.66,19926,8.63,74030.3,-4.97,-31.85,-31.95,0,*5E
1517029343.89,19927,8.63,74030.5,-5.01,-32.01,-31.91,0,*5A
1517029345.18,19928,8.63,74028.5,-4.97,-31.51,-31.51,0,*51
1517029346.46,19929,8.56,74024.5,-4.97,-31.51,-31.61,0,*53
1517029347.69,19930,8.63,74028.5,-4.97,-31.67,-31.67,0,*58
1517029348.95,19931,8.63,74028.0,-5.01,-31.73,-31.91,0,*5B
1517029350.17,19932,8.56,74028.8,-5.01,-31.67,-31.85,0,*58
1517029351.38,19933,8.63,74030.0,-5.01,-32.01,-32.01,0,*55
1517029352.63,19934,8.63,74028.5,-5.01,-31.85,-31.91,0,*57
1517029353.87,19935,8.63,74028.5,-4.97,-31.79,-31.79,0,*5D
1517029355.12,19936,8.63,74030.5,-4.97,-31.51,-31.67,0,*5B
1517029356.39,19937,8.56,74026.8,-4.97,-31.79,-31.95,0,*5D
1517029357.65,19938,8.63,74030.0,-4.97,-31.79,-31.95,0,*52
1517029358.91,19939,8.63,74030.8,-4.97,-31.95,-32.01,0,*5F
1517029360.15,19940,8.63,74028.5,-5.01,-32.01,-32.07,0,*57
1517029361.41,19941,8.56,74026.8,-5.03,-31.85,-32.01,0,*5D
1517029362.66,19942,8.56,74026.8,-5.01,-31.73,-31.73,0,*53
1517029363.92,19943,8.56,74026.8,-5.01,-31.85,-31.85,0,*52
1517029365.17,19944,8.63,74028.0,-5.01,-31.85,-31.91,0,*50
1517029366.4,19945,8.63,74028.5,-5.01,-31.67,-31.85,0,*58
1517029367.65,19946,8.56,74028.0,-5.01,-31.73,-31.85,0,*5E
1517029368.91,19947,8.56,74028.8,-4.97,-31.61,-31.67,0,*5E
1517029370.14,19948,8.63,74026.5,-4.97,-31.79,-31.67,0,*58
1517029371.34,19949,8.63,74030.0,-4.95,-31.67,-31.79,0,*5B
1517029372.58,19950,8.63,74030.3,-4.97,-31.79,-31.79,0,*5E
1517029373.84,19951,8.63,74028.5,-4.97,-31.79,-31.85,0,*5C
1517029375.07,19952,8.56,74028.0,-4.95,-31.79,-31.85,0,*5D
1517029376.3,19953,8.63,74030.0,-4.97,-31.67,-31.79,0,*52
1517029377.53,19954,8.63,74030.5,-4.97,-31.79,-31.79,0,*5A
1517029378.76,19955,8.63,74028.3,-4.97,-31.67,-31.79,0,*54
1517029380.02,19956,8.56,74028.0,-4.95,-31.85,-31.95,0,*5B
1517029381.25,19957,8.56,74024.0,-4.97,-31.67,-31.79,0,*56
1517029382.51,19958,8.63,74028.8,-4.97,-31.67,-31.61,0,*50
1517029383.77,19959,8.56,74026.8,-4.97,-31.51,-31.67,0,*52
1517029385.0,19960,8.63,74030.3,-4.97,-31.67,-31.79,0,*52
1517029386.26,19961,8.56,74024.8,-4.97,-31.79,-31.95,0,*5E
1517029387.52,19962,8.56,74028.8,-4.95,-31.85,-31.85,0,*5D
1517029388.75,19963,8.63,74030.8,-4.95,-31.61,-31.67,0,*5A
1517029389.95,19964,8.63,74028.5,-4.95,-31.79,-31.67,0,*54
1517029391.24,19965,8.63,74028.3,-4.97,-31.85,-31.85,0,*58
1517029392.46,19966,8.63,74028.0,-4.97,-31.67,-31.79,0,*54
1517029393.69,19967,8.56,74026.5,-4.95,-31.79,-31.85,0,*5B
1517029394.95,19968,8.63,74028.5,-5.01,-31.57,-31.57,0,*5B
1517029396.15,19969,8.63,74028.8,-4.95,-31.67,-31.79,0,*59
1517029397.44,19970,8.56,74026.8,-4.97,-31.85,-31.95,0,*5D
1517029398.7,19971,8.63,74030.8,-4.95,-31.95,-31.95,0,*5F
1517029399.98,19972,8.56,74026.0,-4.97,-31.85,-31.85,0,*5E
1517029401.22,19973,8.56,74024.5,-4.97,-31.79,-31.79,0,*5F
1517029402.51,19974,8.56,74026.8,-4.97,-31.95,-31.95,0,*58
1517029403.77,19975,8.63,74032.8,-4.97,-31.67,-31.85,0,*55
1517029405.0,19976,8.63,74030.3,-4.95,-31.61,-31.79,0,*51
1517029406.25,19977,8.63,74034.3,-4.97,-31.67,-31.85,0,*57
1517029407.51,19978,8.63,74030.3,-4.97,-31.79,-31.85,0,*57
1517029408.77,19979,8.63,74028.3,-4.95,-31.95,-31.95,0,*57
1517029410.03,19980,8.56,74026.0,-4.97,-31.61,-31.67,0,*55
1517029411.27,19981,8.63,74030.5,-4.97,-31.79,-31.79,0,*52
1517029412.53,19982,8.63,74028.3,-4.95,-31.85,-31.95,0,*52
1517029413.76,19983,8.56,74028.3,-4.95,-31.61,-31.79,0,*5B
1517029415.01,19984,8.63,74030.0,-4.97,-31.51,-31.67,0,*52
1517029416.27,19985,8.56,74028.5,-4.97,-31.85,-31.79,0,*55
1517029417.53,19986,8.63,74030.3,-4.95,-31.85,-31.85,0,*57
1517029418.76,19987,8.63,74030.3,-4.97,-31.67,-31.67,0,*54
1517029419.96,19988,8.56,74028.3,-4.95,-31.67,-31.79,0,*56
1517029421.22,19989,8.63,74030.8,-4.97,-31.79,-31.85,0,*59
1517029422.48,19990,8.63,74028.3,-4.95,-31.85,-31.95,0,*51
1517029423.74,19991,8.63,74030.8,-4.95,-31.85,-31.95,0,*50
1517029425.03,19992,8.56,74026.5,-4.97,-31.95,-31.95,0,*50
1517029426.26,19993,8.63,74028.8,-4.97,-31.67,-31.79,0,*5E
1517029427.55,19994,8.63,74030.0,-4.97,-31.61,-31.85,0,*5C
1517029428.81,19995,8.56,74024.3,-4.97,-31.79,-31.85,0,*54
1517029430.1,19996,8.63,74030.5,-4.97,-31.61,-31.61,0,*54
1517029431.33,19997,8.63,74030.3,-4.95,-31.79,-31.95,0,*55
1517029432.59,19998,8.63,74030.0,-4.97,-31.67,-31.85,0,*56
1517029433.85,19999,8.63,74032.3,-4.97,-31.79,-31.85,0,*58
1517029435.04,20000,8.63,74032.3,-4.95,-31.67,-31.67,0,*5A
1517029436.3,20001,8.63,74030.3,-4.95,-31.85,-31.95,0,*5A
1517029437.56,20002,8.63,74032.5,-4.95,-31.85,-31.95,0,*59
1517029438.86,20003,8.63,74032.5,-4.97,-31.95,-31.95,0,*5B
1517029440.11,20004,8.63,74030.0,-4.95,-31.85,-31.85,0,*5E
1517029441.37,20005,8.56,74028.8,-4.95,-31.85,-31.95,0,*5E
1517029442.6,20006,8.63,74032.0,-4.95,-31.79,-31.85,0,*5F
1517029443.83,20007,8.56,74028.3,-4.95,-31.67,-31.85,0,*51
1517029445.08,20008,8.63,74028.5,-4.95,-31.61,-31.85,0,*58
1517029446.37,20009,8.63,74032.0,-4.97,-31.85,-31.95,0,*50
1517029447.63,20010,8.63,74032.0,-4.95,-31.85,-31.95,0,*5A
1517029448.89,20011,8.63,74030.8,-4.95,-31.95,-32.19,0,*5D
1517029450.16,20012,8.63,74034.3,-4.95,-31.85,-32.19,0,*5F
1517029451.36,20013,8.63,74034.8,-4.95,-31.79,-31.67,0,*57
1517029452.56,20014,8.63,74032.5,-4.95,-31.79,-31.79,0,*5F
1517029453.79,20015,8.56,74028.3,-4.97,-31.67,-31.79,0,*53
1517029455.0,20016,8.63,74034.0,-4.95,-31.79,-31.79,0,*5D
1517029456.2,20017,8.63,74030.8,-4.95,-31.79,-31.79,0,*5C
1517029457.4,20018,8.63,74034.3,-4.95,-31.67,-31.79,0,*5C
1517029458.62,20019,8.63,74030.0,-4.95,-31.51,-31.67,0,*57
1517029459.89,20020,8.63,74028.3,-4.97,-31.61,-31.79,0,*53
1517029461.12,20021,8.63,74030.8,-4.95,-31.79,-31.95,0,*5B
1517029462.35,20022,8.63,74028.5,-4.95,-31.61,-31.67,0,*5C
1517029463.58,20023,8.63,74032.0,-4.97,-31.67,-31.79,0,*56
1517029464.86,20024,8.63,74032.0,-4.93,-31.61,-31.73,0,*59
1517029466.12,20025,8.63,74030.0,-4.93,-31.61,-31.79,0,*52
1517029467.33,20026,8.63,74030.0,-4.95,-31.79,-31.79,0,*5E
1517029468.53,20027,8.63,74030.8,-4.95,-31.67,-31.79,0,*50
1517029469.78,20028,8.56,74028.5,-4.95,-31.85,-31.85,0,*50
1517029470.98,20029,8.63,74028.3,-4.95,-31.67,-31.67,0,*51
1517029472.21,20030,8.63,74034.3,-4.95,-31.79,-31.95,0,*5B
1517029473.44,20031,8.63,74030.3,-4.95,-31.67,-31.85,0,*54
1517029474.73,20032,8.63,74030.5,-4.93,-31.73,-31.91,0,*51
1517029476.01,20033,8.56,74028.8,-4.93,-31.73,-31.73,0,*5C
1517029477.29,20034,8.63,74030.3,-4.93,-31.73,-31.73,0,*5B
1517029478.55,20035,8.63,74030.3,-4.93,-31.79,-31.91,0,*5C
1517029479.79,20036,8.63,74028.5,-4.93,-31.79,-31.79,0,*59
1517029481.07,20037,8.56,74026.5,-4.93,-31.61,-31.73,0,*5B
1517029482.33,20038,8.63,74030.3,-4.93,-31.73,-31.79,0,*5D
1517029483.61,20039,8.63,74028.0,-4.93,-31.73,-31.73,0,*56
1517029484.87,20040,8.63,74030.8,-4.91,-31.91,-31.91,0,*5A
1517029486.1,20041,8.63,74028.0,-4.93,-31.79,-31.79,0,*59
1517029487.38,20042,8.63,74030.3,-4.93,-31.57,-31.57,0,*5A
1517029488.67,20043,8.63,74028.3,-4.93,-31.73,-31.73,0,*5B
1517029489.95,20044,8.63,74030.8,-4.93,-31.91,-31.91,0,*5C
1517029491.23,20045,8.63,74030.3,-4.93,-31.73,-31.73,0,*5D
1517029492.49,20046,8.63,74030.8,-4.93,-31.79,-31.91,0,*58
1517029493.75,20047,8.63,74028.5,-4.93,-31.79,-31.91,0,*59
1517029495.04,20048,8.63,74030.3,-4.93,-31.73,-31.73,0,*50
1517029496.29,20049,8.63,74028.5,-4.93,-31.79,-31.73,0,*5B
1517029497.55,20050,8.56,74024.8,-4.93,-31.79,-31.91,0,*5F
1517029498.82,20051,8.63,74028.0,-4.93,-31.73,-31.79,0,*52
1517029500.1,20052,8.63,74032.0,-4.93,-31.73,-31.73,0,*5B
1517029501.36,20053,8.63,74032.0,-4.93,-31.73,-31.79,0,*50
1517029502.62,20054,8.63,74028.5,-4.93,-31.79,-31.91,0,*5B
1517029503.9,20055,8.63,74030.8,-4.93,-31.73,-31.73,0,*5C
1517029505.16,20056,8.56,74028.8,-4.93,-31.79,-31.91,0,*59
1517029506.45,20057,8.63,74030.8,-4.93,-31.73,-31.91,0,*52
1517029507.71,20058,8.63,74032.3,-4.93,-31.79,-31.91,0,*57
1517029508.99,20059,8.56,74028.8,-4.93,-31.91,-31.95,0,*54
1517029510.28,20060,8.63,74030.8,-4.93,-31.91,-31.91,0,*5A
1517029511.57,20061,8.56,74030.0,-4.93,-31.91,-31.95,0,*5F
1517029512.83,20062,8.63,74030.8,-4.93,-31.79,-31.91,0,*5E
1517029514.09,20063,8.56,74026.8,-4.91,-31.73,-31.95,0,*53
1517029515.35,20064,8.56,74026.3,-4.93,-31.79,-31.91,0,*58
1517029516.64,20065,8.56,74026.3,-4.93,-31.91,-31.95,0,*5B
1517029517.87,20066,8.56,74028.3,-4.91,-31.79,-31.95,0,*5C
1517029519.13,20067,8.63,74028.0,-4.93,-31.91,-32.13,0,*54
1517029520.42,20068,8.56,74026.3,-4.93,-31.91,-31.95,0,*56
1517029521.7,20069,8.56,74028.0,-4.93,-31.61,-31.73,0,*50
1517029522.96,20070,8.63,74030.5,-4.91,-31.91,-31.91,0,*59
1517029524.22,20071,8.56,74026.8,-4.93,-31.79,-31.91,0,*5C
1517029525.5,20072,8.63,74030.0,-4.93,-31.91,-31.95,0,*5D
1517029526.79,20073,8.63,74028.0,-4.93,-31.91,-31.95,0,*5C
1517029528.08,20074,8.63,74028.5,-4.93,-31.61,-31.61,0,*5F
1517029529.34,20075,8.63,74028.0,-4.93,-31.73,-31.79,0,*54
1517029530.63,20076,8.63,74028.8,-4.93,-31.61,-31.61,0,*5D
1517029531.91,20077,8.63,74028.3,-4.93,-31.73,-31.73,0,*5C
1517029533.15,20078,8.63,74030.0,-4.91,-31.73,-31.79,0,*5B
1517029534.41,20079,8.63,74030.3,-4.91,-31.61,-31.61,0,*50
1517029535.69,20080,8.63,74030.8,-4.93,-31.73,-31.73,0,*54
1517029536.98,20081,8.56,74028.8,-4.93,-31.91,-31.95,0,*51
1517029538.21,20082,8.63,74028.5,-4.91,-31.79,-31.91,0,*52
1517029539.47,20083,8.56,74028.3,-4.93,-31.79,-31.61,0,*5E
1517029540.73,20084,8.63,74030.0,-4.93,-31.73,-31.79,0,*5A
1517029541.97,20085,8.63,74030.8,-4.93,-31.79,-31.79,0,*51
1517029543.25,20086,8.63,74028.0,-4.93,-31.91,-31.95,0,*56
1517029544.54,20087,8.63,74034.5,-4.93,-31.61,-31.61,0,*53
1517029545.8,20088,8.56,74030.8,-4.93,-31.73,-31.79,0,*56
1517029547.06,20089,8.63,74030.8,-4.93,-31.79,-31.91,0,*5B
1517029548.3,20090,8.63,74028.3,-4.91,-31.73,-31.79,0,*5D
1517029549.56,20091,8.63,74030.0,-4.93,-31.73,-31.79,0,*5E
1517029550.82,20092,8.63,74032.0,-4.93,-31.73,-31.79,0,*5D
1517029552.08,20093,8.63,74030.3,-4.91,-31.61,-31.61,0,*54
1517029553.33,20094,8.63,74028.5,-4.91,-31.39,-31.57,0,*5B
1517029554.57,20095,8.63,74028.5,-4.91,-31.45,-31.61,0,*54
1517029555.82,20096,8.63,74030.8,-4.91,-31.61,-31.73,0,*52
1517029557.08,20097,8.63,74030.0,-4.91,-31.91,-31.95,0,*54
1517029558.29,20098,8.63,74034.0,-4.91,-31.79,-31.79,0,*5F
1517029559.55,20099,8.63,74028.5,-4.91,-31.91,-31.91,0,*5E
1517029560.78,20100,8.63,74032.0,-4.91,-31.79,-31.91,0,*59
1517029562.01,20101,8.63,74028.8,-4.91,-31.79,-31.91,0,*58
1517029563.27,20102,8.63,74028.8,-4.93,-31.73,-31.79,0,*55
1517029564.51,20103,8.63,74032.0,-4.91,-31.79,-31.91,0,*5A
1517029565.74,20104,8.63,74030.5,-4.91,-31.91,-31.79,0,*5D
1517029567.0,20105,8.63,74028.3,-4.93,-31.73,-31.79,0,*52
1517029568.26,20106,8.56,74026.5,-4.91,-31.73,-31.61,0,*5A
1517029569.52,20107,8.63,74030.8,-4.91,-31.73,-31.73,0,*58
1517029570.77,20108,8.63,74030.3,-4.91,-31.61,-31.73,0,*54
1517029572.03,20109,8.56,74026.0,-4.91,-31.61,-31.73,0,*55
1517029573.29,20110,8.63,74030.5,-4.91,-31.61,-31.61,0,*5E
1517029574.52,20111,8.63,74030.0,-4.91,-31.73,-31.79,0,*55
1517029575.78,20112,8.56,74024.8,-4.91,-31.73,-31.73,0,*5C
1517029577.04,20113,8.63,74028.3,-4.89,-31.73,-31.67,0,*51
1517029578.32,20114,8.63,74028.3,-4.89,-31.73,-31.85,0,*5A
1517029579.6,20115,8.63,74028.5,-4.89,-31.51,-31.57,0,*54
1517029580.8,20116,8.63,74028.0,-4.87,-31.67,-31.67,0,*5F
1517029582.05,20117,8.56,74026.5,-4.87,-31.51,-31.57,0,*58
1517029583.33,20118,8.56,74026.8,-4.89,-31.39,-31.57,0,*57
1517029584.61,20119,8.63,74028.5,-4.89,-31.51,-31.57,0,*58
1517029585.83,20120,8.56,74026.3,-4.87,-31.67,-31.73,0,*5F
1517029587.13,20121,8.63,74030.0,-4.89,-31.85,-32.07,0,*5C
1517029588.41,20122,8.63,74026.8,-4.89,-31.73,-31.73,0,*56
1517029589.69,20123,8.63,74026.8,-4.89,-31.51,-31.57,0,*51
1517029590.94,20124,8.63,74030.3,-4.87,-31.51,-31.51,0,*5E
1517029592.22,20125,8.63,74030.3,-4.89,-31.51,-31.57,0,*57
1517029593.5,20126,8.63,74028.0,-4.89,-31.51,-31.57,0,*54
1517029594.73,20127,8.63,74030.0,-4.89,-31.67,-31.67,0,*53
1517029595.99,20128,8.63,74030.3,-4.89,-31.57,-31.67,0,*5F
1517029597.27,20129,8.56,74026.3,-4.89,-31.57,-31.73,0,*5B
1517029598.53,20130,8.63,74028.3,-4.87,-31.85,-31.91,0,*5E
1517029599.78,20131,8.63,74028.3,-4.87,-31.39,-31.57,0,*52
1517029601.02,20132,8.56,74024.5,-4.85,-31.45,-31.45,0,*5B
1517029602.26,20133,8.56,74024.0,-4.85,-31.33,-31.45,0,*5B
1517029603.55,20134,8.63,74028.8,-4.85,-31.61,-31.61,0,*5D
1517029604.83,20135,8.63,74028.5,-4.85,-31.61,-31.85,0,*56
1517029606.09,20136,8.63,74028.0,-4.85,-31.67,-31.85,0,*53
1517029607.3,20137,8.63,74026.5,-4.83,-31.79,-31.79,0,*58
1517029608.55,20138,8.63,74028.0,-4.83,-31.51,-31.61,0,*54
1517029609.81,20139,8.63,74030.3,-4.85,-31.61,-31.67,0,*56
1517029611.1,20140,8.63,74028.8,-4.85,-31.61,-31.61,0,*5E
1517029612.36,20141,8.63,74028.3,-4.87,-31.73,-31.85,0,*54
1517029613.59,20142,8.63,74028.3,-4.85,-31.79,-32.01,0,*50
1517029614.82,20143,8.56,74024.3,-4.85,-31.79,-31.67,0,*52
1517029616.08,20144,8.63,74028.5,-4.85,-31.61,-31.79,0,*53
1517029617.34,20145,8.63,74028.8,-4.85,-31.67,-31.85,0,*57
1517029618.57,20146,8.63,74030.0,-4.85,-31.79,-32.01,0,*54
1517029619.8,20147,8.56,74024.3,-4.85,-31.67,-31.79,0,*56
1517029621.06,20148,8.56,74024.8,-4.83,-31.61,-31.61,0,*50
1517029622.32,20149,8.56,74024.5,-4.85,-31.79,-31.85,0,*54
1517029623.58,20150,8.63,74028.5,-4.83,-31.85,-31.85,0,*59
1517029624.84,20151,8.63,74028.8,-4.85,-31.79,-31.85,0,*5D
1517029626.06,20152,8.63,74028.8,-4.83,-31.67,-31.85,0,*57
1517029627.3,20153,8.63,74030.0,-4.83,-31.61,-31.79,0,*53
1517029628.53,20154,8.56,74026.8,-4.85,-31.67,-31.67,0,*5B
1517029629.75,20155,8.56,74026.8,-4.85,-31.67,-31.67,0,*5A
1517029630.95,20156,8.63,74028.3,-4.83,-31.67,-31.79,0,*50
1517029632.19,20157,8.63,74028.8,-4.85,-31.79,-31.79,0,*58
1517029633.42,20158,8.63,74030.0,-4.85,-31.67,-31.67,0,*57
1517029634.65,20159,8.63,74030.8,-4.83,-31.61,-31.67,0,*56
1517029635.88,20160,8.63,74026.8,-4.83,-31.61,-31.67,0,*5C
1517029637.11,20161,8.63,74026.8,-4.83,-31.61,-31.67,0,*5D
1517029638.32,20162,8.56,74024.3,-4.83,-31.79,-32.01,0,*54
1517029639.57,20163,8.56,74024.5,-4.85,-31.91,-32.01,0,*55
1517029640.78,20164,8.56,74024.0,-4.83,-31.67,-31.79,0,*51
1517029641.98,20165,8.63,74028.8,-4.83,-31.67,-31.79,0,*50
1517029643.19,20166,8.56,74024.5,-4.83,-31.79,-32.01,0,*50
1517029644.39,20167,8.63,74028.8,-4.83,-31.67,-31.67,0,*5D
1517029645.59,20168,8.63,74030.3,-4.83,-31.67,-31.67,0,*52
1517029646.82,20169,8.56,74026.0,-4.83,-31.79,-31.85,0,*50
1517029648.05,20170,8.56,74024.0,-4.83,-31.61,-31.67,0,*5D
1517029649.28,20171,8.63,74028.3,-4.83,-31.61,-31.79,0,*53
1517029650.51,20172,8.56,74024.8,-4.83,-31.67,-31.85,0,*55
1517029651.72,20173,8.63,74030.3,-4.83,-31.67,-31.79,0,*57
1517029652.95,20174,8.63,74028.0,-4.83,-31.61,-31.67,0,*59
1517029654.18,20175,8.63,74030.3,-4.83,-31.79,-31.85,0,*5D
1517029655.38,20176,8.63,74034.0,-4.83,-31.67,-31.67,0,*5D
1517029656.61,20177,8.63,74028.8,-4.83,-31.61,-31.79,0,*55
1517029657.87,20178,8.63,74030.3,-4.81,-31.61,-31.79,0,*58
1517029659.07,20179,8.63,74030.3,-4.83,-31.67,-31.67,0,*52
1517029660.36,20180,8.56,74026.3,-4.81,-31.57,-31.61,0,*53
1517029661.64,20181,8.56,74024.8,-4.81,-31.57,-31.61,0,*52
1517029662.9,20182,8.56,74026.3,-4.81,-31.73,-31.79,0,*5E
1517029664.18,20183,8.56,74026.3,-4.81,-31.73,-31.73,0,*55
1517029665.46,20184,8.56,74024.5,-4.81,-31.61,-31.73,0,*51
1517029666.69,20185,8.63,74028.0,-4.81,-31.79,-32.01,0,*5F
1517029667.92,20186,8.63,74026.8,-4.79,-31.95,-32.13,0,*5A
1517029669.18,20187,8.56,74024.5,-4.81,-31.79,-31.95,0,*53
1517029670.47,20188,8.56,74022.3,-4.81,-31.73,-31.95,0,*56
1517029671.72,20189,8.56,74026.0,-4.81,-31.61,-31.79,0,*56
1517029672.98,20190,8.63,74026.8,-4.79,-31.85,-31.95,0,*51
1517029674.21,20191,8.63,74028.3,-4.79,-31.73,-31.79,0,*5B
1517029675.47,20192,8.56,74024.8,-4.81,-31.73,-31.79,0,*5F
1517029676.7,20193,8.56,74026.3,-4.79,-31.73,-31.79,0,*59
1517029677.99,20194,8.63,74024.8,-4.81,-31.57,-31.61,0,*56
1517029679.22,20195,8.63,74028.3,-4.79,-31.73,-31.79,0,*5F
1517029680.42,20196,8.63,74024.8,-4.79,-31.79,-32.01,0,*5A
1517029681.71,20197,8.56,74026.5,-4.81,-31.73,-31.95,0,*58
1517029682.97,20198,8.63,74026.8,-4.79,-31.73,-31.95,0,*50
1517029684.23,20199,8.63,74024.5,-4.79,-31.61,-31.95,0,*52
1517029685.46,20200,8.63,74028.3,-4.79,-31.61,-31.79,0,*53
1517029686.66,20201,8.63,74028.3,-4.79,-31.79,-32.01,0,*57
1517029687.91,20202,8.63,74030.5,-4.79,-31.57,-31.57,0,*58
1517029689.14,20203,8.63,74030.3,-4.79,-31.45,-31.57,0,*5A
1517029690.42,20204,8.63,74028.5,-4.81,-31.73,-31.73,0,*59
1517029691.67,20205,8.63,74028.5,-4.79,-31.57,-31.73,0,*59
1517029692.92,20206,8.63,74026.5,-4.77,-31.67,-31.73,0,*57
1517029694.15,20207,8.63,74028.5,-4.77,-31.67,-31.67,0,*53
1517029695.41,20208,8.63,74030.8,-4.77,-31.67,-31.91,0,*55
1517029696.69,20209,8.63,74028.3,-4.77,-31.73,-31.91,0,*51
1517029697.95,20210,8.63,74028.3,-4.77,-31.79,-31.91,0,*53
1517029699.23,20211,8.56,74026.3,-4.77,-31.73,-31.73,0,*54
1517029700.52,20212,8.63,74028.5,-4.77,-31.57,-31.57,0,*57
1517029701.77,20213,8.63,74028.0,-4.77,-31.67,-31.73,0,*53
1517029703.05,20214,8.63,74028.8,-4.77,-31.57,-31.57,0,*51
1517029704.3,20215,8.63,74030.0,-4.77,-31.67,-31.73,0,*55
1517029705.55,20216,8.63,74030.5,-4.77,-31.67,-31.73,0,*56
1517029706.8,20217,8.56,74026.8,-4.77,-31.67,-31.73,0,*57
1517029708.05,20218,8.63,74028.0,-4.77,-31.67,-31.73,0,*58
1517029709.33,20219,8.63,74030.8,-4.73,-31.51,-31.51,0,*58